#timestamp,LO_Frequency,Hit,StdDev 
1531483215.1,286047001.1,N
1531483216.0,286047001.1,N
1531483235.8,286046998.2,N
1531483255.6,286047000.1,N
1531483275.5,286046999.8,N
1531483295.3,286047000.3,N
1531483315.2,286047000.2,N
1531483335.9,286047002.3,N
1531483355.7,286047002.4,N
1531483375.6,286047002.3,N
1531483395.4,286047002.0,N
1531483415.3,286047002.4,N
1531483435.1,286046999.9,N
1531483436.0,286046999.9,N
1531483455.8,286047001.1,N
1531483475.7,286046998.6,N
1531483495.5,286047000.3,N
1531483515.3,286047000.0,N
1531483535.2,286046999.9,N
1531483555.0,286047002.2,N
1531483555.9,286047002.2,N
1531483575.8,286047002.6,N
1531483595.6,286047002.1,N
1531483615.4,286047002.3,N
1531483635.3,286047001.8,N
1531483655.1,286047001.9,N
1531483675.8,286047001.5,N
1531483695.7,286047002.3,N
1531483715.5,286047002.5,N
1531483735.4,286047000.0,N
1531483755.2,286046999.7,N
1531483775.0,286047000.1,N
1531483775.9,286047000.1,N
1531483795.8,286046998.2,N
1531483815.6,286047001.2,N
1531483835.4,286046998.6,N
1531483855.3,286047001.2,N
1531483875.1,286047000.9,N
1531483895.9,286047000.9,N
1531483915.7,286047000.1,N
1531483935.5,286047000.6,N
1531483955.4,286047000.5,N
1531483975.2,286047000.3,N
1531483995.1,286047000.5,N
1531483996.0,286047000.5,N
1531484015.8,286046999.8,N
1531484035.6,286046999.8,N
1531484055.5,286047000.1,N
1531484075.3,286047002.6,N
1531484095.1,286047002.3,N
1531484115.9,286047002.8,N
1531484135.7,286047000.5,N
1531484155.6,286046998.1,N
1531484175.4,286047000.4,N
1531484195.2,286047000.8,N
1531484215.1,286047000.4,N
1531484216.0,286047000.4,N
1531484235.8,286047002.8,N
1531484255.7,286047002.3,N
1531484275.5,286046999.7,N
1531484295.8,286046999.7,N
1531484315.6,286047002.4,N
1531484335.4,286046999.9,N
1531484355.3,286047000.3,N
1531484375.1,286047000.3,N
1531484395.9,286047000.3,N
1531484415.7,286046999.9,N
1531484435.5,286047001.2,N
1531484455.4,286046998.2,N
1531484475.2,286047000.4,N
1531484495.0,286047001.2,N
1531484496.0,286047001.2,N
1531484515.8,286046998.5,N
1531484535.6,286047001.1,N
1531484555.5,286047002.8,N
1531484575.3,286047002.6,N
1531484595.1,286047002.2,N
1531484615.9,286047002.6,N
1531484635.7,286047000.5,N
1531484655.5,286047001.1,N
1531484675.4,286047000.5,N
1531484695.2,286047001.2,N
1531484715.1,286047000.1,N
1531484716.0,286047000.1,N
1531484735.8,286047002.6,N
1531484755.6,286047002.6,N
1531484775.5,286047002.5,N
1531484795.3,286047002.1,N
1531484815.1,286047000.3,N
1531484835.9,286047000.8,N
1531484855.7,286047000.6,N
1531484875.6,286046999.7,N
1531484895.4,286047002.7,N
1531484915.2,286047002.1,N
1531484935.1,286047002.4,N
1531484936.0,286047002.4,N
1531484955.8,286047002.6,N
1531484975.7,286047002.7,N
1531484995.5,286047002.2,N
1531485015.3,286047001.6,N
1531485035.2,286047002.0,N
1531485055.0,286047002.1,N
1531485055.9,286047002.1,N
1531485075.7,286047002.3,N
1531485095.6,286047002.6,N
1531485115.4,286047001.8,N
1531485135.3,286047001.9,N
1531485155.1,286047001.5,N
1531485175.8,286047001.8,N
1531485195.7,286047001.8,N
1531485215.5,286047001.3,N
1531485235.4,286047004.2,Y
1531485255.2,286047001.6,P
1531485275.0,286047001.9,P
1531485275.9,286047001.9,P
1531485295.8,286047001.9,Y
1531485315.6,286047000.0,P
1531485335.4,286047000.0,N
1531485355.3,286047000.5,N
1531485375.1,286047000.6,N
1531485395.9,286047000.7,N
1531485415.7,286046998.9,N
1531485435.5,286047001.2,N
1531485455.4,286047000.8,N
1531485475.2,286047000.6,N
1531485495.0,286046998.1,N
1531485495.9,286046998.1,N
1531485515.8,286046998.6,N
1531485535.6,286046999.0,N
1531485555.5,286046998.4,N
1531485575.3,286046998.9,N
1531485595.1,286046998.8,N
1531485615.9,286047001.0,N
1531485635.7,286046998.6,N
1531485655.6,286046998.8,N
1531485675.4,286046998.6,N
1531485695.2,286046998.6,N
1531485715.1,286046998.1,N
1531485716.0,286046998.1,N
1531485735.8,286046998.3,N
1531485755.7,286046998.8,N
1531485775.5,286046998.8,N
1531485795.3,286046999.2,N
1531485815.2,286046995.5,Y
1531485835.0,286046995.2,P
1531485835.9,286046995.2,N
1531485855.8,286046996.2,N
1531485875.6,286046995.8,N
1531485895.4,286046995.7,N
1531485915.3,286046995.2,Y
1531485935.1,286046998.4,P
1531485955.9,286046998.8,N
1531485975.7,286046996.6,P
1531485995.5,286046996.9,N
1531486015.4,286046996.5,Y
1531486035.2,286047001.5,P
1531486055.0,286047000.0,N
1531486056.0,286047000.0,N
1531486075.8,286047002.6,N
1531486095.6,286047002.1,N
1531486115.5,286047002.0,N
1531486135.3,286047002.3,N
1531486155.1,286047000.1,N
1531486175.9,286047002.8,N
1531486195.7,286047001.3,N
1531486215.6,286047001.4,N
1531486235.4,286047003.6,N
1531486255.2,286047004.3,N
1531486275.1,286047001.7,N
1531486276.0,286047001.7,N
1531486295.8,286047002.0,N
1531486315.6,286047002.8,N
1531486335.5,286047002.4,N
1531486355.3,286047002.5,N
1531486375.2,286047002.3,N
1531486395.9,286047002.3,N
1531486415.7,286047001.5,N
1531486435.6,286047001.3,N
1531486455.4,286047002.0,N
1531486475.2,286047002.0,N
1531486495.1,286047002.0,N
1531486496.0,286047002.0,N
1531486515.8,286047001.8,N
1531486535.7,286047002.5,N
1531486555.5,286047001.6,N
1531486575.3,286047002.1,N
1531486595.2,286047001.4,N
1531486615.0,286046999.7,N
1531486615.9,286046999.7,N
1531486635.7,286047000.4,N
1531486655.6,286047000.0,N
1531486675.4,286046999.9,N
1531486695.3,286047001.0,N
1531486715.1,286047000.9,N
1531486735.8,286047001.0,N
1531486755.7,286047000.4,N
1531486775.5,286047002.4,N
1531486795.4,286047002.6,N
